vne ulu
datum;časová značka;teplota
31.10.2010 16:56:57;1288540617000;7.87
31.10.2010 17:07:07;1288541227000;7.43
31.10.2010 17:17:17;1288541837000;7.18
31.10.2010 17:27:45;1288542465000;6.75
31.10.2010 17:37:56;1288543076000;6.31
31.10.2010 17:48:06;1288543686000;6.06
31.10.2010 17:58:15;1288544295000;5.93
31.10.2010 18:08:44;1288544924000;5.75
31.10.2010 18:18:53;1288545533000;5.5
31.10.2010 18:29:03;1288546143000;5.37
31.10.2010 18:39:13;1288546753000;5.25
31.10.2010 18:50:00;1288547400000;5.0
31.10.2010 19:00:09;1288548009000;4.93
31.10.2010 19:10:19;1288548619000;4.81
31.10.2010 19:20:30;1288549230000;4.56
31.10.2010 19:30:40;1288549840000;4.5
31.10.2010 19:40:49;1288550449000;4.37
31.10.2010 19:50:59;1288551059000;4.25
31.10.2010 20:01:09;1288551669000;4.18
31.10.2010 20:11:37;1288552297000;4.12
31.10.2010 20:21:46;1288552906000;3.81
31.10.2010 20:31:56;1288553516000;3.87
31.10.2010 20:42:25;1288554145000;3.68
31.10.2010 20:52:35;1288554755000;3.68
31.10.2010 21:02:44;1288555364000;3.68
31.10.2010 21:12:54;1288555974000;3.68
31.10.2010 21:23:04;1288556584000;4.18
31.10.2010 21:33:13;1288557193000;3.93
31.10.2010 21:43:23;1288557803000;4.31
31.10.2010 21:53:52;1288558432000;4.31
31.10.2010 22:04:01;1288559041000;4.93
31.10.2010 22:14:11;1288559651000;4.68
31.10.2010 22:24:21;1288560261000;5.5
31.10.2010 22:34:30;1288560870000;6.18
31.10.2010 22:44:40;1288561480000;6.75
31.10.2010 22:54:50;1288562090000;6.81
31.10.2010 23:04:59;1288562699000;7.0
31.10.2010 23:15:10;1288563310000;7.0
31.10.2010 23:25:19;1288563919000;7.06
31.10.2010 23:35:29;1288564529000;7.0
31.10.2010 23:45:38;1288565138000;6.93
31.10.2010 23:55:48;1288565748000;6.81
01.11.2010 00:05:57;1288566357000;6.75
01.11.2010 00:16:07;1288566967000;6.87
01.11.2010 00:26:18;1288567578000;6.93
01.11.2010 00:36:27;1288568187000;6.81
01.11.2010 00:46:37;1288568797000;6.81
01.11.2010 00:56:46;1288569406000;6.75
01.11.2010 01:06:56;1288570016000;6.56
01.11.2010 01:17:06;1288570626000;6.37
01.11.2010 01:27:15;1288571235000;6.06
01.11.2010 01:37:25;1288571845000;5.81
01.11.2010 01:47:35;1288572455000;5.56
01.11.2010 01:57:45;1288573065000;5.37
01.11.2010 02:07:55;1288573675000;5.18
01.11.2010 02:18:04;1288574284000;4.81
01.11.2010 02:28:51;1288574931000;4.75
01.11.2010 02:39:00;1288575540000;4.68
01.11.2010 02:49:10;1288576150000;4.75
01.11.2010 02:59:19;1288576759000;4.68
01.11.2010 03:09:29;1288577369000;4.56
01.11.2010 03:19:39;1288577979000;4.43
01.11.2010 03:29:49;1288578589000;4.37
01.11.2010 03:39:58;1288579198000;4.12
01.11.2010 03:50:08;1288579808000;4.0
01.11.2010 04:00:18;1288580418000;3.81
01.11.2010 04:10:27;1288581027000;3.87
01.11.2010 04:20:36;1288581636000;3.68
01.11.2010 04:30:47;1288582247000;3.5
01.11.2010 04:40:56;1288582856000;3.43
01.11.2010 04:51:06;1288583466000;3.37
01.11.2010 05:01:15;1288584075000;3.37
01.11.2010 05:11:25;1288584685000;3.31
01.11.2010 05:21:34;1288585294000;3.18
01.11.2010 05:31:43;1288585903000;3.12
01.11.2010 05:41:54;1288586514000;3.18
01.11.2010 05:52:22;1288587142000;3.06
01.11.2010 06:02:31;1288587751000;3.12
01.11.2010 06:12:40;1288588360000;3.18
01.11.2010 06:22:50;1288588970000;3.06
01.11.2010 06:32:59;1288589579000;3.0
01.11.2010 06:43:10;1288590190000;3.06
01.11.2010 06:53:19;1288590799000;3.0
01.11.2010 07:03:29;1288591409000;3.06
01.11.2010 07:13:38;1288592018000;3.25
01.11.2010 07:23:48;1288592628000;3.68
01.11.2010 07:34:15;1288593255000;4.06
01.11.2010 07:44:25;1288593865000;6.06
01.11.2010 07:54:35;1288594475000;6.87
01.11.2010 08:04:45;1288595085000;7.18
01.11.2010 08:14:55;1288595695000;7.43
01.11.2010 08:25:05;1288596305000;7.56
01.11.2010 08:35:14;1288596914000;7.81
01.11.2010 08:45:24;1288597524000;7.93
01.11.2010 08:55:34;1288598134000;7.87
01.11.2010 09:05:43;1288598743000;8.12
01.11.2010 09:15:53;1288599353000;8.31
01.11.2010 09:26:02;1288599962000;8.81
01.11.2010 09:36:13;1288600573000;9.56
01.11.2010 09:46:23;1288601183000;10.25
01.11.2010 09:56:33;1288601793000;10.56
01.11.2010 10:06:42;1288602402000;10.93
01.11.2010 10:17:11;1288603031000;11.25
01.11.2010 10:27:21;1288603641000;11.37
01.11.2010 10:37:31;1288604251000;11.62
01.11.2010 10:47:41;1288604861000;12.0
01.11.2010 10:58:09;1288605489000;12.81
01.11.2010 11:08:19;1288606099000;12.87
01.11.2010 11:18:30;1288606710000;13.06
01.11.2010 11:28:40;1288607320000;12.56
01.11.2010 11:38:50;1288607930000;12.43
01.11.2010 11:49:00;1288608540000;12.31
01.11.2010 11:59:10;1288609150000;12.43
01.11.2010 12:09:21;1288609761000;12.37
01.11.2010 12:19:31;1288610371000;12.5
01.11.2010 12:29:41;1288610981000;12.93
01.11.2010 12:39:51;1288611591000;12.75
01.11.2010 12:50:01;1288612201000;12.5
01.11.2010 13:00:11;1288612811000;12.43
01.11.2010 13:10:22;1288613422000;12.43
01.11.2010 13:20:32;1288614032000;12.43
01.11.2010 13:30:42;1288614642000;12.43
01.11.2010 13:40:52;1288615252000;12.43
01.11.2010 13:51:02;1288615862000;12.43
01.11.2010 14:01:12;1288616472000;12.56
01.11.2010 14:11:22;1288617082000;12.5
01.11.2010 14:21:32;1288617692000;12.43
01.11.2010 14:31:42;1288618302000;12.31
01.11.2010 14:41:52;1288618912000;12.06
01.11.2010 14:52:02;1288619522000;11.93
01.11.2010 15:02:13;1288620133000;11.93
01.11.2010 15:12:23;1288620743000;11.81
01.11.2010 15:22:33;1288621353000;11.75
01.11.2010 15:32:43;1288621963000;11.62
01.11.2010 15:42:53;1288622573000;11.43
01.11.2010 15:53:03;1288623183000;11.18
01.11.2010 16:03:14;1288623794000;10.93
01.11.2010 16:13:23;1288624403000;10.62
01.11.2010 16:23:33;1288625013000;10.31
01.11.2010 16:33:43;1288625623000;9.87
01.11.2010 16:43:53;1288626233000;9.5
01.11.2010 16:54:03;1288626843000;9.12
01.11.2010 17:04:13;1288627453000;8.56
01.11.2010 17:14:23;1288628063000;8.37
01.11.2010 17:24:33;1288628673000;8.06
01.11.2010 17:34:43;1288629283000;7.68
01.11.2010 17:44:52;1288629892000;7.37
01.11.2010 17:55:03;1288630503000;7.12
01.11.2010 18:05:12;1288631112000;6.87
01.11.2010 18:15:22;1288631722000;6.56
01.11.2010 18:25:32;1288632332000;6.43
01.11.2010 18:35:42;1288632942000;6.25
01.11.2010 18:45:51;1288633551000;6.06
01.11.2010 18:56:01;1288634161000;6.06
01.11.2010 19:06:11;1288634771000;6.12
01.11.2010 19:16:21;1288635381000;6.18
01.11.2010 19:26:31;1288635991000;6.31
01.11.2010 19:36:41;1288636601000;6.37
01.11.2010 19:46:50;1288637210000;6.5
01.11.2010 19:57:00;1288637820000;6.5
01.11.2010 20:07:10;1288638430000;6.5
01.11.2010 20:17:19;1288639039000;6.56
01.11.2010 20:27:30;1288639650000;6.56
01.11.2010 20:37:58;1288640278000;6.5
01.11.2010 20:48:07;1288640887000;6.5
01.11.2010 20:58:17;1288641497000;6.56
01.11.2010 21:08:26;1288642106000;6.5
01.11.2010 21:18:37;1288642717000;6.56
01.11.2010 21:28:47;1288643327000;6.56
01.11.2010 21:38:56;1288643936000;6.56
01.11.2010 21:49:43;1288644583000;6.5
01.11.2010 21:59:53;1288645193000;6.5
01.11.2010 22:10:02;1288645802000;6.43
01.11.2010 22:20:13;1288646413000;6.31
01.11.2010 22:30:22;1288647022000;6.25
01.11.2010 22:40:32;1288647632000;6.18
01.11.2010 22:50:41;1288648241000;6.18
01.11.2010 23:01:09;1288648869000;6.12
01.11.2010 23:11:19;1288649479000;6.0
01.11.2010 23:21:30;1288650090000;5.93
01.11.2010 23:31:39;1288650699000;5.87
01.11.2010 23:41:49;1288651309000;5.87
01.11.2010 23:51:58;1288651918000;5.81
02.11.2010 00:02:09;1288652529000;5.75
02.11.2010 00:12:18;1288653138000;5.75
02.11.2010 00:22:28;1288653748000;5.75
02.11.2010 00:32:37;1288654357000;5.68
02.11.2010 00:42:47;1288654967000;5.75
02.11.2010 00:52:57;1288655577000;5.87
02.11.2010 01:03:07;1288656187000;5.87
02.11.2010 01:13:16;1288656796000;5.93
02.11.2010 01:23:26;1288657406000;5.87
02.11.2010 01:33:35;1288658015000;5.93
02.11.2010 01:43:45;1288658625000;5.93
02.11.2010 01:53:55;1288659235000;5.87
02.11.2010 02:04:05;1288659845000;5.87
02.11.2010 02:14:14;1288660454000;6.0
02.11.2010 02:24:24;1288661064000;6.06
02.11.2010 02:34:34;1288661674000;6.06
02.11.2010 02:44:43;1288662283000;6.06
02.11.2010 02:54:54;1288662894000;6.06
02.11.2010 03:05:03;1288663503000;6.06
02.11.2010 03:15:13;1288664113000;6.0
02.11.2010 03:25:22;1288664722000;5.87
02.11.2010 03:35:32;1288665332000;5.75
02.11.2010 03:45:42;1288665942000;5.62
02.11.2010 03:55:52;1288666552000;5.37
02.11.2010 04:06:01;1288667161000;5.43
02.11.2010 04:16:11;1288667771000;5.43
02.11.2010 04:26:20;1288668380000;5.5
02.11.2010 04:36:30;1288668990000;5.56
02.11.2010 04:46:40;1288669600000;5.56
02.11.2010 04:56:50;1288670210000;5.62
02.11.2010 05:06:59;1288670819000;5.68
02.11.2010 05:17:09;1288671429000;5.75
02.11.2010 05:27:18;1288672038000;5.81
02.11.2010 05:37:28;1288672648000;5.87
02.11.2010 05:47:38;1288673258000;5.93
02.11.2010 05:57:48;1288673868000;5.93
02.11.2010 06:07:57;1288674477000;5.93
02.11.2010 06:18:06;1288675086000;5.93
02.11.2010 06:28:17;1288675697000;6.0
02.11.2010 06:38:26;1288676306000;6.0
02.11.2010 06:48:36;1288676916000;6.0
02.11.2010 06:58:45;1288677525000;6.0
02.11.2010 07:08:55;1288678135000;6.06
02.11.2010 07:19:05;1288678745000;6.06
02.11.2010 07:29:33;1288679373000;6.18
02.11.2010 07:39:42;1288679982000;6.31
02.11.2010 07:49:53;1288680593000;6.37
02.11.2010 08:00:02;1288681202000;6.5
02.11.2010 08:10:12;1288681812000;6.68
02.11.2010 08:20:21;1288682421000;6.87
02.11.2010 08:30:31;1288683031000;7.43
02.11.2010 08:40:40;1288683640000;7.87
02.11.2010 08:50:51;1288684251000;8.25
02.11.2010 09:01:00;1288684860000;8.87
02.11.2010 09:11:10;1288685470000;9.37
02.11.2010 09:21:20;1288686080000;10.56
02.11.2010 09:31:31;1288686691000;12.18
02.11.2010 09:41:41;1288687301000;14.18
02.11.2010 09:51:50;1288687910000;15.62
02.11.2010 10:02:01;1288688521000;16.56
02.11.2010 10:12:11;1288689131000;17.31
02.11.2010 10:22:22;1288689742000;16.5
02.11.2010 10:32:31;1288690351000;16.06
02.11.2010 10:42:41;1288690961000;15.56
02.11.2010 10:53:10;1288691590000;15.56
02.11.2010 11:03:21;1288692201000;15.43
02.11.2010 11:13:31;1288692811000;15.0
02.11.2010 11:23:41;1288693421000;14.93
02.11.2010 11:33:50;1288694030000;14.62
02.11.2010 11:44:00;1288694640000;14.5
02.11.2010 11:54:30;1288695270000;14.56
02.11.2010 12:04:40;1288695880000;14.68
02.11.2010 12:14:50;1288696490000;14.68
02.11.2010 12:25:00;1288697100000;14.81
02.11.2010 12:35:10;1288697710000;14.56
02.11.2010 12:45:20;1288698320000;14.12
02.11.2010 12:55:30;1288698930000;14.25
02.11.2010 13:05:40;1288699540000;14.25
02.11.2010 13:15:50;1288700150000;14.25
02.11.2010 13:26:19;1288700779000;14.25
02.11.2010 13:36:30;1288701390000;14.18
02.11.2010 13:46:40;1288702000000;14.12
02.11.2010 13:56:49;1288702609000;13.87
02.11.2010 14:06:59;1288703219000;13.81
02.11.2010 14:17:09;1288703829000;13.75
02.11.2010 14:27:20;1288704440000;13.68
02.11.2010 14:37:30;1288705050000;13.62
02.11.2010 14:47:40;1288705660000;13.56
02.11.2010 14:57:50;1288706270000;13.37
02.11.2010 15:08:00;1288706880000;13.18
02.11.2010 15:18:11;1288707491000;13.06
02.11.2010 15:28:21;1288708101000;12.81
02.11.2010 15:38:30;1288708710000;12.62
02.11.2010 15:48:40;1288709320000;12.37
02.11.2010 15:58:51;1288709931000;12.12
02.11.2010 16:09:01;1288710541000;12.0
02.11.2010 16:19:11;1288711151000;11.81
02.11.2010 16:29:21;1288711761000;11.56
02.11.2010 16:39:31;1288712371000;11.37
02.11.2010 16:49:41;1288712981000;11.18
02.11.2010 16:59:51;1288713591000;11.06
02.11.2010 17:10:01;1288714201000;10.93
02.11.2010 17:20:11;1288714811000;10.87
02.11.2010 17:30:21;1288715421000;10.75
02.11.2010 17:40:31;1288716031000;10.75
02.11.2010 17:50:42;1288716642000;10.62
02.11.2010 18:00:51;1288717251000;10.56
02.11.2010 18:11:01;1288717861000;10.5
02.11.2010 18:21:11;1288718471000;10.43
02.11.2010 18:31:21;1288719081000;10.43
02.11.2010 18:41:32;1288719692000;10.37
02.11.2010 18:51:41;1288720301000;10.25
02.11.2010 19:01:51;1288720911000;10.06
02.11.2010 19:12:01;1288721521000;9.87
02.11.2010 19:22:12;1288722132000;9.62
02.11.2010 19:32:21;1288722741000;9.25
02.11.2010 19:42:49;1288723369000;8.87
02.11.2010 19:53:00;1288723980000;8.87
02.11.2010 20:03:10;1288724590000;8.87
02.11.2010 20:13:19;1288725199000;8.93
02.11.2010 20:23:29;1288725809000;8.87
02.11.2010 20:33:40;1288726420000;8.93
02.11.2010 20:43:50;1288727030000;9.0
02.11.2010 20:53:59;1288727639000;9.0
02.11.2010 21:04:09;1288728249000;9.06
02.11.2010 21:14:20;1288728860000;9.12
02.11.2010 21:24:29;1288729469000;9.12
02.11.2010 21:34:57;1288730097000;9.18
02.11.2010 21:45:08;1288730708000;9.18
02.11.2010 21:55:18;1288731318000;9.25
02.11.2010 22:05:27;1288731927000;9.25
02.11.2010 22:15:38;1288732538000;9.18
02.11.2010 22:25:48;1288733148000;9.18
02.11.2010 22:35:57;1288733757000;9.18
02.11.2010 22:46:07;1288734367000;9.12
02.11.2010 22:56:18;1288734978000;9.06
02.11.2010 23:06:28;1288735588000;9.06
02.11.2010 23:16:37;1288736197000;9.0
02.11.2010 23:27:06;1288736826000;9.0
02.11.2010 23:37:16;1288737436000;8.93
02.11.2010 23:47:25;1288738045000;8.75
02.11.2010 23:57:35;1288738655000;8.62
03.11.2010 00:07:46;1288739266000;8.56
03.11.2010 00:17:55;1288739875000;8.43
03.11.2010 00:28:05;1288740485000;8.18
03.11.2010 00:38:15;1288741095000;8.0
03.11.2010 00:48:25;1288741705000;7.93
03.11.2010 00:58:35;1288742315000;7.75
03.11.2010 01:08:44;1288742924000;7.56
03.11.2010 01:19:31;1288743571000;7.37
03.11.2010 01:29:41;1288744181000;7.25
03.11.2010 01:39:51;1288744791000;7.18
03.11.2010 01:50:00;1288745400000;7.12
03.11.2010 02:00:11;1288746011000;7.06
03.11.2010 02:10:20;1288746620000;7.06
03.11.2010 02:20:30;1288747230000;7.06
03.11.2010 02:30:39;1288747839000;7.06
03.11.2010 02:40:50;1288748450000;7.06
03.11.2010 02:50:59;1288749059000;7.06
03.11.2010 03:01:09;1288749669000;7.0
03.11.2010 03:11:19;1288750279000;7.0
03.11.2010 03:21:28;1288750888000;7.0
03.11.2010 03:31:38;1288751498000;7.0
03.11.2010 03:41:48;1288752108000;6.93
03.11.2010 03:51:58;1288752718000;6.93
03.11.2010 04:02:08;1288753328000;6.93
03.11.2010 04:12:17;1288753937000;6.93
03.11.2010 04:22:27;1288754547000;6.87
03.11.2010 04:32:37;1288755157000;6.87
03.11.2010 04:42:47;1288755767000;6.87
03.11.2010 04:52:56;1288756376000;6.87
03.11.2010 05:03:06;1288756986000;6.87
03.11.2010 05:13:16;1288757596000;6.87
03.11.2010 05:23:25;1288758205000;6.87
03.11.2010 05:33:35;1288758815000;6.87
03.11.2010 05:43:45;1288759425000;6.87
03.11.2010 05:53:55;1288760035000;6.87
03.11.2010 06:04:04;1288760644000;6.87
03.11.2010 06:14:14;1288761254000;6.87
03.11.2010 06:24:24;1288761864000;6.87
03.11.2010 06:34:33;1288762473000;6.87
03.11.2010 06:44:43;1288763083000;6.81
03.11.2010 06:54:53;1288763693000;6.81
03.11.2010 07:05:03;1288764303000;6.81
03.11.2010 07:15:12;1288764912000;6.81
03.11.2010 07:25:22;1288765522000;6.87
03.11.2010 07:35:32;1288766132000;6.87
03.11.2010 07:45:42;1288766742000;6.93
03.11.2010 07:56:28;1288767388000;7.06
03.11.2010 08:06:37;1288767997000;7.12
03.11.2010 08:16:48;1288768608000;7.25
03.11.2010 08:26:57;1288769217000;7.5
03.11.2010 08:37:07;1288769827000;8.0
03.11.2010 08:47:17;1288770437000;8.68
03.11.2010 08:57:27;1288771047000;8.81
03.11.2010 09:07:37;1288771657000;8.68
03.11.2010 09:17:46;1288772266000;8.87
03.11.2010 09:27:57;1288772877000;9.06
03.11.2010 09:38:07;1288773487000;9.25
03.11.2010 09:48:16;1288774096000;9.18
03.11.2010 09:58:26;1288774706000;9.06
03.11.2010 10:08:36;1288775316000;9.06
03.11.2010 10:19:04;1288775944000;9.18
03.11.2010 10:29:14;1288776554000;9.25
03.11.2010 10:39:25;1288777165000;9.43
03.11.2010 10:49:34;1288777774000;9.43
03.11.2010 10:59:44;1288778384000;9.5
03.11.2010 11:09:54;1288778994000;9.62
03.11.2010 11:20:04;1288779604000;9.68
03.11.2010 11:30:33;1288780233000;9.68
03.11.2010 11:40:42;1288780842000;9.81
03.11.2010 11:50:52;1288781452000;9.87
03.11.2010 12:01:03;1288782063000;9.87
03.11.2010 12:11:12;1288782672000;9.87
03.11.2010 12:21:22;1288783282000;9.87
03.11.2010 12:31:31;1288783891000;9.93
03.11.2010 12:42:01;1288784521000;10.0
03.11.2010 12:52:10;1288785130000;10.06
03.11.2010 13:02:20;1288785740000;10.12
03.11.2010 13:12:30;1288786350000;10.18
03.11.2010 13:22:40;1288786960000;10.25
03.11.2010 13:32:50;1288787570000;10.37
03.11.2010 13:43:00;1288788180000;10.43
03.11.2010 13:53:28;1288788808000;10.43
03.11.2010 14:03:39;1288789419000;10.43
03.11.2010 14:13:48;1288790028000;10.5
03.11.2010 14:23:58;1288790638000;10.56
03.11.2010 14:34:08;1288791248000;10.5
03.11.2010 14:44:18;1288791858000;10.56
03.11.2010 14:54:27;1288792467000;10.75
03.11.2010 15:04:38;1288793078000;10.87
03.11.2010 15:14:47;1288793687000;10.75
03.11.2010 15:24:58;1288794298000;10.62
03.11.2010 15:35:08;1288794908000;10.56
03.11.2010 15:45:18;1288795518000;10.56
03.11.2010 15:55:27;1288796127000;10.56
03.11.2010 16:05:37;1288796737000;10.43
03.11.2010 16:15:48;1288797348000;10.37
03.11.2010 16:25:57;1288797957000;10.18
03.11.2010 16:36:07;1288798567000;10.18
03.11.2010 16:46:17;1288799177000;10.18
03.11.2010 16:56:27;1288799787000;10.12
03.11.2010 17:06:36;1288800396000;10.06
03.11.2010 17:16:47;1288801007000;10.06
03.11.2010 17:26:56;1288801616000;10.0
03.11.2010 17:37:07;1288802227000;9.93
03.11.2010 17:47:16;1288802836000;9.93
03.11.2010 17:57:27;1288803447000;9.93
03.11.2010 18:07:37;1288804057000;10.0
03.11.2010 18:17:47;1288804667000;9.93
03.11.2010 18:27:56;1288805276000;9.93
03.11.2010 18:38:06;1288805886000;9.93
03.11.2010 18:48:16;1288806496000;9.93
03.11.2010 18:58:25;1288807105000;9.93
03.11.2010 19:08:36;1288807716000;9.93
03.11.2010 19:18:45;1288808325000;9.93
03.11.2010 19:28:55;1288808935000;9.93
03.11.2010 19:39:06;1288809546000;9.93
03.11.2010 19:49:15;1288810155000;9.93
03.11.2010 19:59:25;1288810765000;9.93
03.11.2010 20:09:35;1288811375000;9.93
03.11.2010 20:19:45;1288811985000;9.93
03.11.2010 20:29:55;1288812595000;9.93
03.11.2010 20:40:05;1288813205000;10.06
03.11.2010 20:50:14;1288813814000;10.06
03.11.2010 21:00:25;1288814425000;10.12
03.11.2010 21:10:34;1288815034000;10.18
03.11.2010 21:20:44;1288815644000;10.25
03.11.2010 21:30:54;1288816254000;10.18
03.11.2010 21:41:04;1288816864000;10.25
03.11.2010 21:51:14;1288817474000;10.25
03.11.2010 22:01:24;1288818084000;10.25
03.11.2010 22:11:33;1288818693000;10.25
03.11.2010 22:21:44;1288819304000;10.31
03.11.2010 22:31:53;1288819913000;10.25
03.11.2010 22:42:03;1288820523000;10.31
03.11.2010 22:52:13;1288821133000;10.31
03.11.2010 23:02:23;1288821743000;10.25
03.11.2010 23:12:32;1288822352000;10.31
03.11.2010 23:22:43;1288822963000;10.25
03.11.2010 23:32:52;1288823572000;10.25
03.11.2010 23:43:03;1288824183000;10.25
03.11.2010 23:53:12;1288824792000;10.25
04.11.2010 00:03:22;1288825402000;10.25
04.11.2010 00:13:31;1288826011000;10.25
04.11.2010 00:23:42;1288826622000;10.31
04.11.2010 00:33:51;1288827231000;10.31
04.11.2010 00:44:02;1288827842000;10.25
04.11.2010 00:54:11;1288828451000;10.18
04.11.2010 01:04:21;1288829061000;10.12
04.11.2010 01:14:31;1288829671000;10.06
04.11.2010 01:24:41;1288830281000;10.0
04.11.2010 01:34:50;1288830890000;10.0
04.11.2010 01:45:01;1288831501000;9.93
04.11.2010 01:55:10;1288832110000;9.87
04.11.2010 02:05:21;1288832721000;9.87
04.11.2010 02:15:30;1288833330000;9.87
04.11.2010 02:25:39;1288833939000;9.81
04.11.2010 02:35:50;1288834550000;9.81
04.11.2010 02:45:59;1288835159000;9.81
04.11.2010 02:56:10;1288835770000;9.81
04.11.2010 03:06:19;1288836379000;9.75
04.11.2010 03:16:29;1288836989000;9.75
04.11.2010 03:26:39;1288837599000;9.75
04.11.2010 03:36:48;1288838208000;9.75
04.11.2010 03:46:58;1288838818000;9.81
04.11.2010 03:57:08;1288839428000;9.81
04.11.2010 04:07:18;1288840038000;9.81
04.11.2010 04:17:28;1288840648000;9.81
04.11.2010 04:27:38;1288841258000;9.75
04.11.2010 04:37:47;1288841867000;9.81
04.11.2010 04:47:58;1288842478000;9.75
04.11.2010 04:58:07;1288843087000;9.75
04.11.2010 05:08:17;1288843697000;9.75
04.11.2010 05:18:27;1288844307000;9.75
04.11.2010 05:28:37;1288844917000;9.81
04.11.2010 05:38:46;1288845526000;9.75
04.11.2010 05:48:57;1288846137000;9.81
04.11.2010 05:59:06;1288846746000;9.75
04.11.2010 06:09:16;1288847356000;9.87
04.11.2010 06:19:26;1288847966000;9.81
04.11.2010 06:29:35;1288848575000;9.81
04.11.2010 06:39:46;1288849186000;9.93
04.11.2010 06:49:55;1288849795000;9.81
04.11.2010 07:00:05;1288850405000;9.81
04.11.2010 07:10:15;1288851015000;9.87
04.11.2010 07:20:24;1288851624000;10.0
04.11.2010 07:30:35;1288852235000;10.06
04.11.2010 07:40:44;1288852844000;10.12
04.11.2010 07:50:55;1288853455000;10.18
04.11.2010 08:01:04;1288854064000;10.31
04.11.2010 08:11:14;1288854674000;10.37
04.11.2010 08:21:24;1288855284000;10.5
04.11.2010 08:31:33;1288855893000;10.62
04.11.2010 08:41:44;1288856504000;10.87
04.11.2010 08:51:53;1288857113000;11.06
04.11.2010 09:02:03;1288857723000;11.25
04.11.2010 09:12:13;1288858333000;11.62
04.11.2010 09:22:23;1288858943000;11.5
04.11.2010 09:32:33;1288859553000;11.56
04.11.2010 09:42:43;1288860163000;11.62
04.11.2010 09:52:53;1288860773000;11.68
04.11.2010 10:03:02;1288861382000;11.75
04.11.2010 10:13:13;1288861993000;11.75
04.11.2010 10:23:22;1288862602000;11.81
04.11.2010 10:33:32;1288863212000;11.87
04.11.2010 10:43:42;1288863822000;11.87
04.11.2010 10:53:52;1288864432000;12.12
04.11.2010 11:04:03;1288865043000;12.62
04.11.2010 11:14:12;1288865652000;12.93
04.11.2010 11:24:23;1288866263000;13.0
04.11.2010 11:34:32;1288866872000;13.0
04.11.2010 11:44:43;1288867483000;13.06
04.11.2010 11:54:52;1288868092000;13.25
04.11.2010 12:05:03;1288868703000;13.25
04.11.2010 12:15:12;1288869312000;13.25
04.11.2010 12:25:22;1288869922000;13.18
04.11.2010 12:35:32;1288870532000;13.43
04.11.2010 12:45:42;1288871142000;13.56
04.11.2010 12:55:52;1288871752000;13.43
04.11.2010 13:06:20;1288872380000;13.43
04.11.2010 13:16:31;1288872991000;13.56
04.11.2010 13:26:41;1288873601000;13.5
04.11.2010 13:36:50;1288874210000;13.62
04.11.2010 13:47:01;1288874821000;13.56
04.11.2010 13:57:10;1288875430000;13.56
04.11.2010 14:07:21;1288876041000;13.56
04.11.2010 14:17:30;1288876650000;13.37
04.11.2010 14:27:41;1288877261000;13.37
04.11.2010 14:37:50;1288877870000;13.37
04.11.2010 14:48:00;1288878480000;13.31
04.11.2010 14:58:10;1288879090000;13.31
04.11.2010 15:08:20;1288879700000;13.25
04.11.2010 15:18:30;1288880310000;13.31
04.11.2010 15:28:40;1288880920000;13.12
04.11.2010 15:38:51;1288881531000;13.06
04.11.2010 15:49:00;1288882140000;13.0
04.11.2010 15:59:11;1288882751000;12.93
04.11.2010 16:09:20;1288883360000;12.93
04.11.2010 16:19:30;1288883970000;12.87
04.11.2010 16:29:40;1288884580000;12.87
04.11.2010 16:39:50;1288885190000;12.93
04.11.2010 16:50:00;1288885800000;12.75
04.11.2010 17:00:10;1288886410000;12.75
04.11.2010 17:10:20;1288887020000;12.81
04.11.2010 17:20:29;1288887629000;12.75
04.11.2010 17:30:58;1288888258000;12.87
04.11.2010 17:41:08;1288888868000;12.87
04.11.2010 17:51:18;1288889478000;13.0
04.11.2010 18:01:28;1288890088000;12.93
04.11.2010 18:11:38;1288890698000;12.81
04.11.2010 18:21:48;1288891308000;12.81
04.11.2010 18:31:57;1288891917000;12.81
04.11.2010 18:42:08;1288892528000;12.87
04.11.2010 18:52:18;1288893138000;12.81
04.11.2010 19:02:28;1288893748000;12.87
04.11.2010 19:12:38;1288894358000;12.87
04.11.2010 19:22:48;1288894968000;12.87
04.11.2010 19:32:58;1288895578000;12.81
04.11.2010 19:43:07;1288896187000;12.75
04.11.2010 19:53:18;1288896798000;12.62
04.11.2010 20:03:46;1288897426000;12.75
04.11.2010 20:13:56;1288898036000;12.81
04.11.2010 20:24:06;1288898646000;12.87
04.11.2010 20:34:16;1288899256000;12.87
04.11.2010 20:44:25;1288899865000;12.93
04.11.2010 20:54:36;1288900476000;12.81
04.11.2010 21:04:46;1288901086000;12.87
04.11.2010 21:14:56;1288901696000;12.81
04.11.2010 21:25:06;1288902306000;12.87
04.11.2010 21:35:16;1288902916000;12.93
04.11.2010 21:45:26;1288903526000;12.93
04.11.2010 21:55:36;1288904136000;12.87
04.11.2010 22:05:46;1288904746000;12.81
04.11.2010 22:15:56;1288905356000;12.87
04.11.2010 22:26:05;1288905965000;12.87
04.11.2010 22:36:34;1288906594000;12.81
04.11.2010 22:46:43;1288907203000;12.87
04.11.2010 22:57:12;1288907832000;12.81
04.11.2010 23:07:23;1288908443000;12.68
04.11.2010 23:17:32;1288909052000;12.62
04.11.2010 23:27:42;1288909662000;12.56
04.11.2010 23:37:52;1288910272000;12.5
04.11.2010 23:48:03;1288910883000;12.43
04.11.2010 23:58:12;1288911492000;12.37
05.11.2010 00:08:23;1288912103000;12.37